Other Surface Observations
Issued by NWS Jacksonville, FL

Home | Current Version | Previous Version | Text Only | Print | Product List | Glossary On
Versions: 1 2 3 4 5 6 7 8 9 10 11 12 13 14 15 16 17 18 19 20 21 22 23 24 25 26 27 28 29 30 31 32 33 34 35 36 37 38 39 40 41 42 43 44 45 46 47 48 49 50
000
SXUS52 KJAX 231610
OSOJAX
OTHER SURFACE OBSERVATIONS
NATIONAL WEATHER SERVICE JACKSONVILLE FL
1200 PM EDT TUE SEP 23 2014

FLZ020>025-030>033-035>038-040-231700-
...FLORIDA...

CITY           SKY/WX    TMP DP  RH WIND       PRES   REMARKS
CECIL FIELD    CLOUDY    73  70  88 NE9       30.09R
HERLONG FIELD  NOT AVBL
FERNANDINA BCH NOT AVBL
LAKE CITY      CLOUDY    73  68  83 NE15      30.09S
JUNIPER SPGS   NOT AVBL
BUNNELL        PTSUNNY   81  72  74 W6        30.05S
KEYSTONE HGTS    N/A     73  70  88 NE7       30.09R
$$

GAZ132>136-149>154-162>166-231700-
...GEORGIA...

CITY           SKY/WX    TMP DP  RH WIND       PRES   REMARKS
JESUP          PTSUNNY   81  66  61 E13G18    30.12S
HOMERVILLE     FAIR      81  64  57 NE7       30.12R
SWAINSBORO     PTSUNNY   75  66  73 E9        30.19R
CORDELE        NOT AVBL
$$

PLEASE NOTE:  THESE OBSERVATIONS ARE NOT QUALITY CONTROLLED AND MAY
NOT BE AVAILABLE AT ALL TIMES.
$$


USA.gov is the U.S. government's official web portal to all federal, state and local government web resources and services.